Location: *
(41.3833°S, 177.8333°W)
Time: 03:12:42
(UTC+00:00)

FENGYUN 3A - Pass Details

Date: 01 April 2020
Orbit: 823 x 837 km, 98.4° (Epoch: 31 May)

Event Time Altitude Azimuth Distance (km) Brightness Sun altitude
Rises 15:40:36 0° 26° (NNE) 3,353 6.9 -28.0°
Reaches altitude 10° 15:42:58 10° 29° (NNE) 2,427 6.2 -27.6°
Maximum altitude 15:48:15 59° 108° (ESE) 956 4.2 -26.7°
Drops below altitude 10° 15:53:36 10° 186° (S) 2,460 6.2 -25.7°
Sets 15:56:00 0° 189° (S) 3,402 7.0 -25.3°
